| time (UTC) | temp C | wind direction | speed KPH | gust KPH | rain 1hr cm | rain 24hr cm | rain mn cm | humidity % | barometer mb |
| 20260504100315 | 4 | 345 | 0.0 | 0.0 | 0.00 | 0.00 | 0.00 | 82 | 1015.8 |
| 20260504081709 | 5 | 340 | 0.0 | 0.0 | 0.00 | 0.00 | 0.00 | 76 | 1016.3 |
| 20260504081205 | 5 | 344 | 0.0 | 0.0 | 0.00 | 0.00 | 0.00 | 76 | 1016.4 |
| 20260504080701 | 5 | 341 | 0.0 | 0.0 | 0.00 | 0.00 | 0.00 | 75 | 1016.4 |
| 20260504080158 | 5 | 334 | 0.0 | 1.6 | 0.00 | 0.00 | 0.00 | 75 | 1016.4 |
| 20260504070126 | 5 | 337 | 0.0 | 0.0 | 0.00 | 0.00 | 0.00 | 80 | 1016.5 |
| 20260504050514 | 3 | 348 | 0.0 | 1.6 | 0.00 | 0.00 | 0.00 | 91 | 1016.6 |
| 20260504050012 | 2 | 348 | 0.0 | 0.0 | 0.00 | 0.00 | 0.00 | 90 | 1016.5 |
| 20260504045508 | 2 | 346 | 0.0 | 0.0 | 0.00 | 0.00 | 0.00 | 89 | 1016.9 |
| 20260504045003 | 3 | 345 | 0.0 | 0.0 | 0.00 | 0.00 | 0.00 | 89 | 1016.7 |
| 20260504044501 | 3 | 347 | 0.0 | 0.0 | 0.00 | 0.00 | 0.00 | 88 | 1016.7 |
| 20260504043958 | 3 | 348 | 0.0 | 0.0 | 0.00 | 0.00 | 0.00 | 87 | 1016.6 |
| 20260504043455 | 3 | 349 | 0.0 | 0.0 | 0.00 | 0.00 | 0.00 | 86 | 1016.7 |
| 20260504042952 | 3 | 350 | 0.0 | 0.0 | 0.00 | 0.00 | 0.00 | 86 | 1016.5 |
| 20260504042449 | 3 | 350 | 0.0 | 0.0 | 0.00 | 0.00 | 0.00 | 86 | 1016.5 |
| 20260504041945 | 4 | 347 | 0.0 | 0.0 | 0.00 | 0.00 | 0.00 | 86 | 1016.5 |
| 20260504041442 | 3 | 341 | 0.0 | 0.0 | 0.00 | 0.00 | 0.00 | 87 | 1016.6 |
| 20260504040937 | 4 | 344 | 0.0 | 0.0 | 0.00 | 0.00 | 0.00 | 87 | 1016.6 |
| 20260504040436 | 4 | 349 | 0.0 | 0.0 | 0.00 | 0.00 | 0.00 | 87 | 1016.3 |
| 20260504035931 | 3 | 345 | 0.0 | 0.0 | 0.00 | 0.00 | 0.00 | 86 | 1016.6 |
| 20260504035429 | 4 | 344 | 0.0 | 0.0 | 0.00 | 0.00 | 0.00 | 86 | 1016.6 |
| 20260504034926 | 5 | 340 | 0.0 | 0.0 | 0.00 | 0.00 | 0.00 | 86 | 1016.6 |
| 20260504034423 | 5 | 340 | 0.0 | 0.0 | 0.00 | 0.00 | 0.00 | 86 | 1016.5 |
| 20260504033920 | 5 | 339 | 0.0 | 0.0 | 0.00 | 0.00 | 0.00 | 85 | 1016.6 |
| 20260504033418 | 5 | 335 | 0.0 | 0.0 | 0.00 | 0.00 | 0.00 | 85 | 1016.7 |
| 20260504032915 | 5 | 338 | 0.0 | 0.0 | 0.00 | 0.00 | 0.00 | 85 | 1016.5 |
| 20260504032411 | 5 | 340 | 0.0 | 0.0 | 0.00 | 0.00 | 0.00 | 85 | 1016.7 |
| 20260504031908 | 5 | 340 | 0.0 | 0.0 | 0.00 | 0.00 | 0.00 | 84 | 1016.5 |
| 20260504031405 | 5 | 340 | 0.0 | 0.0 | 0.00 | 0.00 | 0.00 | 84 | 1016.4 |
| 20260504030902 | 5 | 339 | 0.0 | 0.0 | 0.00 | 0.00 | 0.00 | 83 | 1016.2 |
| 20260504030359 | 5 | 339 | 0.0 | 0.0 | 0.00 | 0.00 | 0.00 | 82 | 1016.3 |
| 20260504025855 | 5 | 337 | 0.0 | 0.0 | 0.00 | 0.00 | 0.00 | 81 | 1016.2 |
| 20260504025352 | 6 | 336 | 0.0 | 0.0 | 0.00 | 0.00 | 0.00 | 81 | 1016.2 |
| 20260504024848 | 6 | 338 | 0.0 | 0.0 | 0.00 | 0.00 | 0.00 | 81 | 1016.3 |
| 20260504024345 | 6 | 325 | 1.6 | 1.6 | 0.00 | 0.00 | 0.00 | 79 | 1016.2 |
| 20260504023842 | 6 | 339 | 0.0 | 0.0 | 0.00 | 0.00 | 0.00 | 78 | 1016.3 |
| 20260504023339 | 6 | 336 | 0.0 | 1.6 | 0.00 | 0.00 | 0.00 | 77 | 1016.2 |
| 20260504022834 | 6 | 330 | 0.0 | 1.6 | 0.00 | 0.00 | 0.00 | 77 | 1016.3 |
| 20260504022332 | 6 | 329 | 0.0 | 1.6 | 0.00 | 0.00 | 0.00 | 77 | 1016.1 |
| 20260504021828 | 6 | 330 | 0.0 | 1.6 | 0.00 | 0.00 | 0.00 | 77 | 1016.3 |
| 20260504021326 | 6 | 335 | 0.0 | 0.0 | 0.00 | 0.00 | 0.00 | 77 | 1016.0 |
| 20260504020822 | 6 | 341 | 0.0 | 0.0 | 0.00 | 0.00 | 0.00 | 77 | 1016.1 |
| 20260504020319 | 6 | 339 | 0.0 | 0.0 | 0.00 | 0.00 | 0.00 | 77 | 1016.2 |
| 20260504015815 | 6 | 343 | 0.0 | 0.0 | 0.00 | 0.00 | 0.00 | 74 | 1016.3 |
| 20260504015311 | 7 | 341 | 0.0 | 0.0 | 0.00 | 0.00 | 0.00 | 73 | 1016.1 |
| 20260504014808 | 7 | 350 | 0.0 | 0.0 | 0.00 | 0.00 | 0.00 | 71 | 1016.0 |
| 20260504014304 | 7 | 320 | 1.6 | 3.2 | 0.00 | 0.00 | 0.00 | 69 | 1016.1 |
| 20260504013802 | 7 | 333 | 1.6 | 1.6 | 0.00 | 0.00 | 0.00 | 70 | 1016.2 |
| 20260504013259 | 8 | 331 | 1.6 | 1.6 | 0.00 | 0.00 | 0.00 | 68 | 1016.1 |
| 20260504012755 | 8 | 325 | 1.6 | 1.6 | 0.00 | 0.00 | 0.00 | 67 | 1016.0 |
| 20260504012254 | 8 | 325 | 1.6 | 1.6 | 0.00 | 0.00 | 0.00 | 67 | 1016.0 |
| 20260504011750 | 8 | 335 | 0.0 | 0.0 | 0.00 | 0.00 | 0.00 | 66 | 1015.9 |
| 20260504011247 | 8 | 333 | 0.0 | 0.0 | 0.00 | 0.00 | 0.00 | 66 | 1015.9 |
| 20260504010743 | 9 | 345 | 0.0 | 0.0 | 0.00 | 0.00 | 0.00 | 64 | 1015.7 |
| 20260504010238 | 10 | 350 | 0.0 | 1.6 | 0.00 | 0.00 | 0.00 | 60 | 1015.8 |
| 20260504005735 | 10 | 343 | 0.0 | 0.0 | 0.00 | 0.00 | 0.00 | 57 | 1015.7 |
| 20260504005233 | 10 | 330 | 1.6 | 1.6 | 0.00 | 0.00 | 0.00 | 55 | 1015.6 |
| 20260504004730 | 10 | 327 | 1.6 | 1.6 | 0.00 | 0.00 | 0.00 | 56 | 1015.9 |
| 20260504004227 | 10 | 330 | 1.6 | 1.6 | 0.00 | 0.00 | 0.00 | 56 | 1015.8 |
| 20260504003724 | 11 | 336 | 0.0 | 1.6 | 0.00 | 0.00 | 0.00 | 55 | 1015.7 |
| 20260504003221 | 11 | 334 | 0.0 | 1.6 | 0.00 | 0.00 | 0.00 | 54 | 1015.9 |
| 20260504002717 | 11 | 324 | 1.6 | 1.6 | 0.00 | 0.00 | 0.00 | 52 | 1015.6 |
| 20260504002214 | 12 | 345 | 0.0 | 0.0 | 0.00 | 0.00 | 0.00 | 50 | 1015.6 |
| 20260504001712 | 12 | 311 | 1.6 | 1.6 | 0.00 | 0.00 | 0.00 | 47 | 1015.5 |
| 20260504001209 | 12 | 313 | 1.6 | 1.6 | 0.00 | 0.00 | 0.00 | 47 | 1015.6 |
| 20260504000706 | 12 | 325 | 0.0 | 1.6 | 0.00 | 0.00 | 0.00 | 47 | 1015.5 |
| 20260504000204 | 13 | 297 | 3.2 | 3.2 | 0.00 | 0.00 | 0.00 | 45 | 1015.4 |
| 20260503235701 | 13 | 306 | 3.2 | 3.2 | 0.00 | 0.00 | 0.00 | 45 | 1015.2 |
| 20260503235157 | 13 | 322 | 1.6 | 4.8 | 0.00 | 0.00 | 0.00 | 43 | 1015.3 |
| 20260503234655 | 13 | 327 | 1.6 | 3.2 | 0.00 | 0.00 | 0.00 | 43 | 1015.1 |
| 20260503234154 | 13 | 307 | 3.2 | 4.8 | 0.00 | 0.00 | 0.00 | 42 | 1015.1 |
| 20260503233650 | 14 | 312 | 3.2 | 8.0 | 0.00 | 0.00 | 0.00 | 41 | 1015.1 |
| 20260503233146 | 14 | 327 | 6.4 | 8.0 | 0.00 | 0.00 | 0.00 | 41 | 1015.2 |
| 20260503232643 | 14 | 323 | 3.2 | 8.0 | 0.00 | 0.00 | 0.00 | 41 | 1015.1 |
| 20260503232140 | 14 | 328 | 3.2 | 3.2 | 0.00 | 0.00 | 0.00 | 41 | 1015.0 |
| 20260503231638 | 15 | 335 | 3.2 | 8.0 | 0.00 | 0.00 | 0.00 | 40 | 1015.0 |
| 20260503231134 | 15 | 326 | 3.2 | 9.7 | 0.00 | 0.00 | 0.00 | 41 | 1014.8 |
| 20260503230631 | 15 | 54 | 4.8 | 9.7 | 0.00 | 0.00 | 0.00 | 39 | 1014.8 |
| 20260503230128 | 15 | 288 | 6.4 | 9.7 | 0.00 | 0.00 | 0.00 | 40 | 1015.0 |
| 20260503225626 | 15 | 344 | 4.8 | 9.7 | 0.00 | 0.00 | 0.00 | 40 | 1015.1 |
| 20260503225125 | 15 | 251 | 14.5 | 16.1 | 0.00 | 0.00 | 0.00 | 38 | 1015.0 |
| 20260503224623 | 15 | 271 | 4.8 | 12.9 | 0.00 | 0.00 | 0.00 | 39 | 1015.0 |
| 20260503224121 | 15 | 351 | 4.8 | 4.8 | 0.00 | 0.00 | 0.00 | 40 | 1014.9 |
| 20260503223619 | 16 | 281 | 4.8 | 11.3 | 0.00 | 0.00 | 0.00 | 39 | 1015.0 |
| 20260503223114 | 16 | 297 | 4.8 | 9.7 | 0.00 | 0.00 | 0.00 | 38 | 1015.1 |
| 20260503222612 | 15 | 240 | 4.8 | 11.3 | 0.00 | 0.00 | 0.00 | 39 | 1015.1 |
| 20260503222109 | 15 | 236 | 6.4 | 14.5 | 0.00 | 0.00 | 0.00 | 39 | 1014.8 |
| 20260503221608 | 16 | 315 | 4.8 | 12.9 | 0.00 | 0.00 | 0.00 | 41 | 1015.1 |
| 20260503221105 | 15 | 309 | 6.4 | 16.1 | 0.00 | 0.00 | 0.00 | 38 | 1015.1 |
| 20260503220601 | 15 | 236 | 6.4 | 11.3 | 0.00 | 0.00 | 0.00 | 38 | 1015.2 |
| 20260503220058 | 15 | 279 | 11.3 | 14.5 | 0.00 | 0.00 | 0.00 | 39 | 1015.1 |
| 20260503215555 | 16 | 342 | 4.8 | 8.0 | 0.00 | 0.00 | 0.00 | 38 | 1015.0 |
| 20260503215052 | 15 | 212 | 4.8 | 12.9 | 0.00 | 0.00 | 0.00 | 40 | 1015.3 |
| 20260503214550 | 16 | 283 | 6.4 | 16.1 | 0.00 | 0.00 | 0.00 | 38 | 1015.2 |
| 20260503214046 | 16 | 307 | 4.8 | 14.5 | 0.00 | 0.00 | 0.00 | 39 | 1015.1 |
| 20260503213545 | 16 | 250 | 9.7 | 17.7 | 0.00 | 0.00 | 0.00 | 39 | 1015.2 |
| 20260503213041 | 16 | 304 | 8.0 | 17.7 | 0.00 | 0.00 | 0.00 | 38 | 1015.3 |
| 20260503212539 | 16 | 299 | 1.6 | 4.8 | 0.00 | 0.00 | 0.00 | 44 | 1014.8 |
| 20260503212036 | 16 | 276 | 4.8 | 8.0 | 0.00 | 0.00 | 0.00 | 41 | 1015.0 |
| 20260503211533 | 15 | 308 | 9.7 | 14.5 | 0.00 | 0.00 | 0.00 | 38 | 1014.9 |
| 20260503211028 | 16 | 248 | 8.0 | 12.9 | 0.00 | 0.00 | 0.00 | 39 | 1015.1 |
| 20260503210526 | 15 | 309 | 6.4 | 12.9 | 0.00 | 0.00 | 0.00 | 39 | 1015.0 |
| 20260503210021 | 16 | 345 | 4.8 | 12.9 | 0.00 | 0.00 | 0.00 | 39 | 1014.9 |
| 20260503205518 | 17 | 244 | 3.2 | 4.8 | 0.00 | 0.00 | 0.00 | 40 | 1015.0 |
| 20260503205015 | 16 | 297 | 8.0 | 11.3 | 0.00 | 0.00 | 0.00 | 39 | 1015.1 |
| 20260503204512 | 16 | 300 | 8.0 | 14.5 | 0.00 | 0.00 | 0.00 | 38 | 1015.0 |
| 20260503204008 | 16 | 345 | 11.3 | 16.1 | 0.00 | 0.00 | 0.00 | 37 | 1015.0 |
| 20260503203506 | 15 | 243 | 11.3 | 17.7 | 0.00 | 0.00 | 0.00 | 37 | 1015.2 |
| 20260503203003 | 15 | 301 | 8.0 | 12.9 | 0.00 | 0.00 | 0.00 | 39 | 1015.0 |
| 20260503202500 | 16 | 263 | 6.4 | 14.5 | 0.00 | 0.00 | 0.00 | 38 | 1015.1 |
| 20260503201959 | 16 | 309 | 8.0 | 14.5 | 0.00 | 0.00 | 0.00 | 38 | 1015.2 |
| 20260503201456 | 16 | 295 | 6.4 | 11.3 | 0.00 | 0.00 | 0.00 | 38 | 1015.1 |
| 20260503200953 | 15 | 337 | 1.6 | 11.3 | 0.00 | 0.00 | 0.00 | 42 | 1015.3 |
| 20260503200449 | 14 | 311 | 6.4 | 11.3 | 0.00 | 0.00 | 0.00 | 39 | 1015.3 |
| 20260503195946 | 15 | 287 | 11.3 | 12.9 | 0.00 | 0.00 | 0.00 | 37 | 1015.4 |
| 20260503195444 | 15 | 354 | 3.2 | 24.1 | 0.00 | 0.00 | 0.00 | 40 | 1015.4 |
| 20260503194940 | 15 | 243 | 17.7 | 25.7 | 0.00 | 0.00 | 0.00 | 37 | 1015.1 |
| 20260503194437 | 15 | 291 | 8.0 | 12.9 | 0.00 | 0.00 | 0.00 | 40 | 1015.6 |
| 20260503193932 | 15 | 26 | 3.2 | 14.5 | 0.00 | 0.00 | 0.00 | 38 | 1015.5 |
| 20260503193428 | 15 | 293 | 11.3 | 17.7 | 0.00 | 0.00 | 0.00 | 37 | 1015.6 |
| 20260503192923 | 16 | 344 | 9.7 | 12.9 | 0.00 | 0.00 | 0.00 | 38 | 1015.7 |
| 20260503192421 | 15 | 325 | 11.3 | 16.1 | 0.00 | 0.00 | 0.00 | 37 | 1016.0 |
| 20260503191916 | 15 | 289 | 14.5 | 17.7 | 0.00 | 0.00 | 0.00 | 37 | 1015.9 |
| 20260503191414 | 15 | 342 | 4.8 | 8.0 | 0.00 | 0.00 | 0.00 | 39 | 1015.9 |
| 20260503190910 | 15 | 323 | 6.4 | 16.1 | 0.00 | 0.00 | 0.00 | 39 | 1015.9 |
| 20260503190408 | 15 | 303 | 8.0 | 25.7 | 0.00 | 0.00 | 0.00 | 38 | 1015.9 |
| 20260503185904 | 15 | 302 | 6.4 | 9.7 | 0.00 | 0.00 | 0.00 | 43 | 1015.9 |
| 20260503185401 | 15 | 266 | 8.0 | 12.9 | 0.00 | 0.00 | 0.00 | 39 | 1016.2 |
| 20260503184900 | 15 | 267 | 12.9 | 24.1 | 0.00 | 0.00 | 0.00 | 37 | 1016.1 |
| 20260503184356 | 15 | 254 | 6.4 | 12.9 | 0.00 | 0.00 | 0.00 | 43 | 1016.3 |
| 20260503183853 | 15 | 251 | 6.4 | 11.3 | 0.00 | 0.00 | 0.00 | 44 | 1016.2 |
| 20260503183350 | 15 | 330 | 11.3 | 17.7 | 0.00 | 0.00 | 0.00 | 40 | 1016.3 |
| 20260503182847 | 14 | 274 | 4.8 | 4.8 | 0.00 | 0.00 | 0.00 | 44 | 1016.4 |
| 20260503182346 | 14 | 339 | 4.8 | 9.7 | 0.00 | 0.00 | 0.00 | 43 | 1016.4 |
| 20260503181842 | 14 | 250 | 14.5 | 20.9 | 0.00 | 0.00 | 0.00 | 41 | 1016.5 |
| 20260503181340 | 14 | 207 | 9.7 | 14.5 | 0.00 | 0.00 | 0.00 | 40 | 1016.5 |
| 20260503180836 | 14 | 311 | 11.3 | 16.1 | 0.00 | 0.00 | 0.00 | 42 | 1016.5 |
| 20260503180334 | 13 | 297 | 12.9 | 17.7 | 0.00 | 0.00 | 0.00 | 41 | 1016.6 |
| 20260503175830 | 12 | 37 | 4.8 | 20.9 | 0.00 | 0.00 | 0.00 | 42 | 1016.7 |
| 20260503175328 | 12 | 236 | 9.7 | 17.7 | 0.00 | 0.00 | 0.00 | 42 | 1016.7 |
| 20260503174823 | 13 | 281 | 9.7 | 12.9 | 0.00 | 0.00 | 0.00 | 44 | 1016.9 |
| 20260503174322 | 13 | 238 | 14.5 | 20.9 | 0.00 | 0.00 | 0.00 | 43 | 1017.0 |
| 20260503173817 | 13 | 305 | 8.0 | 11.3 | 0.00 | 0.00 | 0.00 | 43 | 1016.7 |
| 20260503173314 | 13 | 352 | 9.7 | 16.1 | 0.00 | 0.00 | 0.00 | 44 | 1016.9 |
| 20260503172810 | 13 | 212 | 4.8 | 11.3 | 0.00 | 0.00 | 0.00 | 50 | 1016.6 |
| 20260503172308 | 13 | 14 | 9.7 | 12.9 | 0.00 | 0.00 | 0.00 | 45 | 1016.7 |
| 20260503171804 | 13 | 333 | 8.0 | 12.9 | 0.00 | 0.00 | 0.00 | 44 | 1016.9 |
| 20260503171301 | 13 | 326 | 8.0 | 14.5 | 0.00 | 0.00 | 0.00 | 44 | 1016.9 |
| 20260503170758 | 12 | 271 | 11.3 | 14.5 | 0.00 | 0.00 | 0.00 | 45 | 1017.2 |
| 20260503170255 | 12 | 296 | 4.8 | 11.3 | 0.00 | 0.00 | 0.00 | 44 | 1017.1 |
| 20260503160217 | 11 | 336 | 9.7 | 16.1 | 0.00 | 0.00 | 0.00 | 47 | 1017.7 |
| 20260503150647 | 10 | 299 | 6.4 | 14.5 | 0.00 | 0.00 | 0.00 | 51 | 1018.0 |
| 20260503150143 | 10 | 273 | 11.3 | 16.1 | 0.00 | 0.00 | 0.00 | 46 | 1018.1 |
| 20260503140108 | 9 | 285 | 8.0 | 14.5 | 0.00 | 0.00 | 0.00 | 51 | 1018.3 |
| 20260503131037 | 8 | 308 | 4.8 | 17.7 | 0.00 | 0.00 | 0.00 | 55 | 1018.2 |
| 20260503130534 | 7 | 260 | 3.2 | 14.5 | 0.00 | 0.00 | 0.00 | 58 | 1018.1 |
| 20260503110425 | 3 | 316 | 4.8 | 8.0 | 0.00 | 0.00 | 0.00 | 72 | 1017.4 |